Weather in Tetovo

North Macedonia     42°00′43″N   20°58′20″E
temp.,
°C
wind,
m/s
gust,
m/s
humid.,
%
clouds,
%
prec.,
mm/h
press.,
hPa
HPBL,
m
2 december, thu
thu201:00−1wnw32581 0.0 101518
04:000wnw2261100 0.0 101414
07:000wnw117196 0.0 101411
10:00+4se2374100 0.0 1012294
13:00+5sse238337 0.0 1010325
16:00+2ssw129380 0.0 101137
19:00+2wsw3390100 0.0 101040
22:00+3sw2490100 0.0 1009149
3 december, fri
fri301:00+3sw249463 0.1 1008108
04:00+3sw358930 0.0 100687
07:00+4sw2492100 0.0 1007106
10:00+6sse138572 0.1 1008247
13:00+7e2376100 0.5 1007364
16:00+5nw1188100 0.3 100811
19:00+4n1188100 0.4 100912
22:00+4ene2298100 1.6 1011151
4 december, sat
sat401:00+2e2199100 5.7 1012255
04:00+2ene1198100 1.7 1012116
07:00+2nnw0196100 1.8 1012124
10:00+2e1196100 0.0 1013138
13:00+4se119185 0.0 1011253
16:00+3se119212 0.0 101111
19:00+3wnw11876 0.0 101111
22:00+2wnw218187 0.0 101112
5 december, sun
sun501:00+3wnw218093 0.0 101013
04:00+2wnw22804 0.0 101114
07:00+2wnw21798 0.0 101112
10:00+7sse23736 0.0 1009454
13:00+9s356613 0.0 1006902
16:00+6ssw2386100 0.0 1007123
19:00+6sw2389100 0.3 1007184
22:00+5wsw2395100 6.0 1007154
6 december, mon
mon601:00+4w0197100 13.2 1006126
04:00+5wsw1294100 4.4 1005134
07:00+4s1298100 10.6 1005154
10:00+7se1281100 0.3 1007445
13:00+5se2389100 2.3 1008385
16:00+3ene2298100 0.2 1011169
19:00+2e2297100 0.3 1014278
22:00+1e2398100 0.2 1017177